Regional Weather Roundup
Issued by NWS Northern Indiana

Home | Current Version | Previous Version | Graphics & Text | Print | Product List | Glossary On
Versions: 1 2 3 4 5 6 7 8 9 10 11 12 13 14 15 16 17 18 19 20 21 22 23 24 25 26 27 28 29 30 31 32 33 34 35 36 37 38 39 40 41 42 43 44 45 46 47 48 49 50
000
ASUS43 KIWX 271700
RWRIWX

KIWX WEATHER ROUNDUP
NATIONAL WEATHER SERVICE NORTHERN INDIANA
1200 PM EST TUE JAN 27 2015

NOTE: "FAIR" INDICATES FEW OR NO CLOUDS BELOW 12,000 FEET WITH NO
SIGNIFICANT WEATHER AND/OR OBSTRUCTIONS TO VISIBILITY.

* THESE STATIONS ARE NOT UNDER NWS QUALITY CONTROL. THEY ALSO MAY NOT
  REPORT WEATHER SUCH AS PRECIPITATION OR FOG.

INZ001>027-271800-
NORTHERN INDIANA

CITY           SKY/WX    TMP DP  RH WIND       PRES   REMARKS
GARY*          PTSUNNY   30  14  51 E7        30.17R WCI  23
SOUTH BEND     SUNNY     27  10  49 NE7       30.14R WCI  19
ELKHART*       SUNNY     25   9  50 E6        30.15R WCI  18
GOSHEN         SUNNY     23  14  68 E6        30.13R WCI  16
ANGOLA*        SUNNY     19   9  63 NE7       30.10F WCI  10
FORT WAYNE     MOSUNNY   22  13  68 E3        30.12F
PERU/GRISSOM   CLOUDY    23  11  60 E3        30.12R

$$
INZ028>050-271800-
CENTRAL INDIANA

CITY           SKY/WX    TMP DP  RH WIND       PRES   REMARKS
LAFAYETTE      CLOUDY    26  21  81 NE6       30.14R WCI  19
KOKOMO*        CLOUDY    21  14  73 E5        30.13R WCI  15
MUNCIE*        SUNNY     23  13  65 NE7       30.11R WCI  15
INDIANAPOLIS   CLOUDY    26  21  81 NE5       30.10R WCI  20

$$
MIZ043>046-050>051-056>058-064>065-071>073-077>080-271800-
SOUTHWEST LOWER MICHIGAN

CITY           SKY/WX    TMP DP  RH WIND       PRES   REMARKS
BATTLE CREEK   MOSUNNY   24  11  57 NE7       30.12F WCI  16
BENTON HARBOR  SUNNY     24  12  60 E7        30.15R WCI  16
COLDWATER*     PTSUNNY   22  11  61 NE10      30.11F WCI  11
HILLSDALE*     SUNNY     22  10  61 NE5       30.08F WCI  15
HOLLAND        SUNNY     25  11  55 E10       30.17R WCI  15
GRAND RAPIDS   MOSUNNY   23  11  60 E12       30.15S WCI  12
KALAMAZOO      SUNNY     24  10  55 NE3       30.13F
STURGIS*       SUNNY     21  12  68 E8        30.11F WCI  12
THREE RIVERS*  FAIR      22  13  67 NE5       30.13S WCI  16

$$
OHZ001>008-015>018-024>025-271800-
NORTHWEST OHIO

CITY           SKY/WX    TMP DP  RH WIND       PRES   REMARKS
DEFIANCE       MOSUNNY   23  13  65 VRB6      30.13S WCI  16
FINDLAY        SUNNY     20  11  68 N9        30.10R WCI   9
TOLEDO EXPRESS SUNNY     21  12  68 N5        30.12S WCI  15
TOLEDO METCALF PTSUNNY   22  11  62 N8        30.13R WCI  12
LIMA           SUNNY     19  11  70 N7        30.10R WCI  10

$$
AND FOR LAKE MICHIGAN COASTAL AND OPEN LAKE BUOY OBSERVATIONS

STATION/POSITION TEMP    WIND        PRES    VSBY  WAVE
                 AIR SEA DIR/SP/G                  HT/PER
                 (F)     (DEG/KT/KT) (MB)    (MI)  (FT/S)
CALUMET HARBOR    28      40/  8/ 11   N/A
MICHIGAN CITY     25      30/  5/  7   N/A
SAINT JOSEPH      24      30/  1/  6 1021.3R

$$
&&


USA.gov is the U.S. government's official web portal to all federal, state and local government web resources and services.